Location: Bakhuizen
(52.8696°N, 5.4575°E)
Time: 20:36:18
(UTC+00:00)

BREEZE-M DEB (TANK) - Pass Details

Date: 11 May 2021
Orbit: 284 x 18730 km, 52.5° (Epoch: 20 June)

Event Time Altitude Azimuth Distance (km) Brightness Sun altitude
Rises 21:43:39 0° 263° (W) 6,723 8.6 -15.1°
Reaches altitude 10° 21:49:59 10° 264° (W) 3,882 7.4 -15.5°
Maximum altitude 21:57:17 86° 178° (S) 587 2.8 -16.0°
Enters shadow 21:59:25 15° 89° (E) 1,190 4.3 -16.1°
